Weather History for KFPK - March, 2014

Change the Weather History Date:

Sunday, March 9, 2014

  Actual Average (KLAN) Record (KLAN)
Temperature  
Mean Temperature 22 °F 32 °F  
Max Temperature 35 °F 41 °F 72 °F (1878)
Min Temperature 9 °F 24 °F -11 °F (1978)
Degree Days  
Heating Degree Days 43 33  
Month to date heating degree days 309  
Since 1 July heating degree days 5244  
Cooling Degree Days 0 0  
Month to date cooling degree days 0  
Year to date cooling degree days 0  
Moisture  
Dew Point 19 °F    
Average Humidity 74    
Maximum Humidity 90    
Minimum Humidity 54    
Precipitation  
Precipitation 0.00 in 0.06 in 1.50 in (1877)
Month to date precipitation 0.55  
Year to date precipitation 3.67  
Snow  
Snow 0.00 in 0.30 in 13.90 in (1919)
Month to date snowfall 2.7  
Since 1 July snowfall 44.9  
Snow Depth -    
Sea Level Pressure  
Sea Level Pressure 30.03 in    
Wind  
Wind Speed 7 mph (SW)    
Max Wind Speed 17 mph    
Max Gust Speed 26 mph    
Visibility 10 miles    
Events      
T = Trace of Precipitation, MM = Missing Value Source: NWS Daily Summary

Daily Weather History Graph

Daily Weather History Graph

Search for Another Location

Airport or City:

Trip Planner

Search our weather history database for the weather conditions in past years. The results will help you decide how hot, cold, wet, or windy it might be!

Date:

Astronomy

Mar. 09, 2014 Rise Set
Actual Time 8:01 AM EDT 7:38 PM EDT
Civil Twilight 7:33 AM EDT 8:06 PM EDT
Nautical Twilight 7:00 AM EDT 8:39 PM EDT
Astronomical Twilight 6:27 AM EDT 9:12 PM EDT
Moon 1:25 PM EDT (3/9) 3:32 AM EDT (3/9)
Length of Visible Light 12h 33m
Length of Day
11h 37m
First Quarter, 61% of the Moon is Illuminated
Mar 9
First Quarter
Mar 16
Full
Mar 23
Last Quarter
Mar 30
New
Apr 7
First Quarter

Hourly Weather History & Observations

Time (EDT) Temp. Windchill Dew Point Humidity Pressure Visibility Wind Dir Wind Speed Gust Speed Precip Events Conditions
12:15 AM 22.1 °F 14.7 °F 16.5 °F 79% 30.16 in 10.0 mi West 5.8 mph - N/A   Clear
12:35 AM 21.7 °F 14.3 °F 16.2 °F 79% 30.16 in 10.0 mi West 5.8 mph - N/A   Clear
12:55 AM 20.8 °F 14.4 °F 15.8 °F 81% - 10.0 mi West 4.6 mph - N/A   Clear
1:15 AM 20.1 °F 13.6 °F 15.1 °F 81% 30.16 in 10.0 mi West 4.6 mph - N/A   Clear
1:35 AM 19.4 °F 12.8 °F 14.9 °F 83% 30.17 in 10.0 mi West 4.6 mph - N/A   Clear
1:55 AM 18.9 °F 12.1 °F 14.7 °F 84% 30.16 in 10.0 mi West 4.6 mph - N/A   Clear
3:15 AM 18.3 °F 13.1 °F 14.2 °F 84% 30.16 in 10.0 mi West 3.5 mph - N/A   Clear
3:35 AM 17.6 °F 12.3 °F 13.8 °F 85% 30.16 in 10.0 mi West 3.5 mph - N/A   Clear
3:55 AM 16.7 °F 9.6 °F 13.1 °F 86% 30.17 in 10.0 mi West 4.6 mph - N/A   Clear
4:15 AM 16.7 °F 11.2 °F 13.5 °F 87% 30.16 in 10.0 mi WSW 3.5 mph - N/A   Clear
4:35 AM 16.3 °F 10.8 °F 12.9 °F 86% 30.16 in 10.0 mi WSW 3.5 mph - N/A   Clear
4:55 AM 15.8 °F 10.2 °F 12.9 °F 88% 30.16 in 10.0 mi WSW 3.5 mph - N/A   Clear
5:15 AM 15.6 °F 10.0 °F 12.4 °F 87% 30.16 in 10.0 mi WSW 3.5 mph - N/A   Clear
5:35 AM 15.1 °F - 11.8 °F 87% 30.16 in 10.0 mi Calm Calm - N/A   Clear
5:55 AM 13.1 °F - 9.5 °F 86% 30.16 in 10.0 mi Calm Calm - N/A   Clear
6:15 AM 11.1 °F - 7.5 °F 85% 30.16 in 10.0 mi Calm Calm - N/A   Clear
6:35 AM 12.7 °F - 9.5 °F 87% 30.17 in 10.0 mi Calm Calm - N/A   Clear
6:55 AM 12.0 °F - 9.0 °F 88% 30.17 in 10.0 mi Calm Calm - N/A   Clear
7:15 AM 9.7 °F - 6.4 °F 87% 30.18 in 10.0 mi Calm Calm - N/A   Clear
7:35 AM 10.6 °F - 8.1 °F 90% 30.18 in 10.0 mi Calm Calm - N/A   Clear
7:55 AM 12.2 °F 6.1 °F 8.8 °F 86% 30.18 in 10.0 mi South 3.5 mph - N/A   Clear
8:15 AM 10.6 °F 4.3 °F 6.6 °F 84% 30.18 in 10.0 mi South 3.5 mph - N/A   Clear
8:35 AM 11.3 °F 5.1 °F 8.4 °F 88% 30.18 in 10.0 mi SSE 3.5 mph - N/A   Clear
8:55 AM 11.7 °F 3.7 °F 8.1 °F 85% 30.18 in 10.0 mi South 4.6 mph - N/A   Clear
9:15 AM 15.1 °F 7.7 °F 11.5 °F 86% 30.18 in 10.0 mi South 4.6 mph - N/A   Clear
9:35 AM 17.6 °F 9.3 °F 13.6 °F 84% 30.17 in 10.0 mi SSW 5.8 mph - N/A   Clear
9:55 AM 19.6 °F 10.6 °F 15.1 °F 83% 30.17 in 10.0 mi SSW 6.9 mph - N/A   Clear
10:15 AM 21.2 °F 12.6 °F 16.3 °F 82% 30.18 in 10.0 mi SSW 6.9 mph - N/A   Clear
10:35 AM 23.0 °F 15.8 °F 17.2 °F 79% 30.16 in 10.0 mi SSW 5.8 mph - N/A   Clear
10:55 AM 24.6 °F 15.1 °F 17.8 °F 75% 30.15 in 10.0 mi SSW 9.2 mph - N/A   Clear
11:15 AM 25.9 °F 15.3 °F 18.3 °F 73% 30.14 in 10.0 mi SSW 11.5 mph - N/A   Clear
11:35 AM 27.7 °F 18.8 °F 18.9 °F 69% 30.14 in 10.0 mi SW 9.2 mph - N/A   Clear
11:55 AM 29.1 °F 18.9 °F 18.5 °F 65% 30.13 in 10.0 mi SSW 12.7 mph - N/A   Clear
12:15 PM 30.2 °F 20.2 °F 18.3 °F 61% 30.13 in 10.0 mi SW 12.7 mph 17.3 mph N/A   Clear
12:35 PM 31.6 °F 22.6 °F 19.0 °F 60% 30.11 in 10.0 mi SSW 11.5 mph - N/A   Clear
12:55 PM 32.0 °F 22.1 °F 19.6 °F 60% 30.11 in 10.0 mi SW 13.8 mph - N/A   Clear
1:15 PM 32.2 °F 22.3 °F 19.6 °F 60% 30.09 in 10.0 mi SSW 13.8 mph 18.4 mph N/A   Clear
1:35 PM 33.3 °F 24.6 °F 19.2 °F 56% 30.09 in 10.0 mi WSW 11.5 mph 18.4 mph N/A   Clear
1:55 PM 33.4 °F 23.5 °F 18.1 °F 54% 30.08 in 10.0 mi SW 15.0 mph - N/A   Clear
2:15 PM 33.1 °F 25.5 °F 18.9 °F 56% 30.06 in 10.0 mi SW 9.2 mph - N/A   Clear
2:35 PM 33.8 °F 24.8 °F 20.1 °F 57% 30.05 in 10.0 mi SW 12.7 mph - N/A   Clear
2:55 PM 33.8 °F 23.5 °F 20.5 °F 58% 30.03 in 10.0 mi SW 16.1 mph 20.7 mph N/A   Clear
3:15 PM 33.8 °F 24.3 °F 20.3 °F 58% 30.01 in 10.0 mi SSW 13.8 mph 19.6 mph N/A   Clear
3:35 PM 34.2 °F 25.7 °F 20.1 °F 57% 30.01 in 10.0 mi SSW 11.5 mph 19.6 mph N/A   Clear
3:55 PM 34.3 °F 24.6 °F 20.8 °F 58% 29.98 in 10.0 mi SSW 15.0 mph 21.9 mph N/A   Clear
4:15 PM 34.7 °F 26.4 °F 21.4 °F 58% 29.98 in 10.0 mi South 11.5 mph - N/A   Clear
4:35 PM 34.7 °F 26.9 °F 22.1 °F 60% 29.98 in 10.0 mi SSW 10.4 mph - N/A   Clear
4:55 PM 34.7 °F 26.9 °F 22.5 °F 61% 29.97 in 10.0 mi SSW 10.4 mph - N/A   Clear
5:15 PM 34.7 °F 25.9 °F 22.5 °F 61% 29.96 in 10.0 mi SSW 12.7 mph 17.3 mph N/A   Clear
5:35 PM 34.3 °F 25.9 °F 22.6 °F 62% 29.93 in 10.0 mi South 11.5 mph - N/A   Clear
5:55 PM 33.8 °F 24.8 °F 23.2 °F 65% 29.93 in 10.0 mi SSW 12.7 mph - N/A   Clear
6:15 PM 33.8 °F 24.3 °F 23.0 °F 65% 29.91 in 10.0 mi SSW 13.8 mph 18.4 mph N/A   Clear
6:35 PM 34.2 °F 24.8 °F 22.3 °F 62% 29.89 in 10.0 mi SSW 13.8 mph 24.2 mph N/A   Clear
6:55 PM 34.2 °F 24.8 °F 22.3 °F 62% 29.89 in 10.0 mi SSW 13.8 mph 19.6 mph N/A   Clear
7:15 PM 34.2 °F 25.2 °F 22.5 °F 62% 29.89 in 10.0 mi SSW 12.7 mph 19.6 mph N/A   Clear
7:35 PM 33.8 °F 24.8 °F 23.7 °F 67% 29.89 in 10.0 mi SSW 12.7 mph 16.1 mph N/A   Clear
7:55 PM 33.4 °F 23.1 °F 23.9 °F 68% 29.88 in 10.0 mi SSW 16.1 mph 23.0 mph N/A   Clear
8:15 PM 33.1 °F 23.4 °F 24.3 °F 70% 29.87 in 10.0 mi SSW 13.8 mph 18.4 mph N/A   Clear
8:35 PM 32.9 °F 22.8 °F 24.6 °F 72% 29.86 in 10.0 mi SSW 15.0 mph 19.6 mph N/A   Clear
8:55 PM 32.9 °F 22.8 °F 25.2 °F 73% 29.84 in 10.0 mi SSW 15.0 mph 20.7 mph N/A   Clear
9:15 PM 33.1 °F 22.2 °F 25.7 °F 74% 29.84 in 10.0 mi SSW 17.3 mph 21.9 mph N/A   Clear
9:35 PM 33.3 °F 22.5 °F 26.1 °F 75% 29.82 in 10.0 mi SSW 17.3 mph 26.5 mph N/A   Clear
9:55 PM 33.8 °F 23.2 °F 26.6 °F 75% 29.82 in 10.0 mi SSW 17.3 mph 24.2 mph N/A   Clear
10:15 PM 34.0 °F 23.8 °F 27.3 °F 77% 29.81 in 7.0 mi SSW 16.1 mph 21.9 mph N/A   Clear
10:35 PM 34.2 °F 24.0 °F 27.7 °F 77% 29.82 in 7.0 mi SW 16.1 mph 20.7 mph N/A   Clear
10:55 PM 34.7 °F 24.7 °F 28.2 °F 77% 29.81 in 7.0 mi SSW 16.1 mph 20.7 mph N/A   Clear
11:15 PM 35.1 °F 26.9 °F 28.4 °F 77% 29.81 in 7.0 mi SW 11.5 mph 18.4 mph N/A   Clear
11:35 PM 35.2 °F 26.2 °F 28.8 °F 77% 29.80 in 7.0 mi SW 13.8 mph 19.6 mph N/A   Clear
11:55 PM 35.6 °F 26.6 °F 29.1 °F 77% 29.80 in 7.0 mi SW 13.8 mph 17.3 mph N/A   Clear
12:15 AM 35.6 °F 26.6 °F 29.1 °F 77% 29.79 in 7.0 mi SW 13.8 mph - N/A   Clear
12:35 AM 35.6 °F 26.2 °F 29.3 °F 78% 29.78 in 7.0 mi SW 15.0 mph 19.6 mph N/A   Clear
12:55 AM 35.8 °F 27.3 °F 29.3 °F 77% 29.78 in 7.0 mi SSW 12.7 mph 17.3 mph N/A   Clear